Theta_e
304 304 321 345 346 346 349 350 350 352 353 355 353 354 353 353 353 352 351 349 348 349 347 349 350 355 349 349 346 344 341 338
303 304 305 307 337 348 346 347 348 350 350 353 351 350 350 349 351 349 347 345 345 344 342 341 344 345 344 341 339 339 338 337
301 304 304 305 336 348 347 344 345 345 347 350 350 350 348 347 347 349 347 345 341 338 339 339 340 341 339 338 336 335 334 334
302 301 303 303 314 335 349 344 344 342 345 347 347 348 348 347 348 348 347 345 340 337 337 337 338 339 339 337 335 333 332 334
303 305 302 302 303 307 341 348 344 343 342 343 343 345 348 346 347 347 348 345 340 338 337 337 339 339 338 336 335 334 332 334
304 304 302 303 302 308 323 349 344 344 343 342 339 340 342 341 342 342 344 345 341 337 336 337 340 339 338 336 335 334 334 334
303 304 303 303 303 306 312 335 343 344 345 344 341 339 340 339 340 341 340 343 342 336 336 338 339 339 335 336 336 335 334 335
305 305 306 305 304 304 310 317 340 340 339 338 339 340 342 343 343 344 343 341 341 338 337 337 337 335 334 332 333 335 335 336
303 304 306 306 304 304 307 311 329 337 336 335 335 337 336 337 341 345 345 345 341 340 339 338 337 336 335 334 334 336 332 332
305 306 305 304 307 306 306 314 318 333 331 335 335 335 334 336 336 340 343 343 343 343 340 337 338 336 334 335 337 332 329 328
306 306 303 303 304 306 306 311 316 322 327 333 334 334 335 332 331 330 335 341 341 340 341 339 337 336 335 334 337 333 326 324
308 308 308 304 305 307 309 310 316 320 327 329 329 325 324 327 329 332 333 336 339 341 341 339 337 338 337 337 340 334 326 323
307 308 308 309 307 307 310 314 316 319 323 323 322 321 323 326 329 331 333 335 340 342 340 338 337 335 334 336 336 331 327 323
308 308 309 310 309 311 314 315 314 314 316 319 318 317 319 323 327 328 330 332 340 340 340 339 336 336 336 334 330 328 322 322
306 306 306 307 309 312 314 313 314 316 320 323 323 322 321 323 326 327 326 330 336 338 340 338 333 335 329 325 321 319 318 319
306 305 305 305 308 310 312 311 311 317 322 322 327 328 327 326 328 329 328 328 334 339 337 332 327 324 321 319 318 318 317 314
308 308 304 304 305 307 308 310 312 313 313 315 316 321 326 327 327 329 328 327 333 339 336 330 324 320 320 319 317 314 313 312
308 308 309 306 306 307 308 308 308 310 313 313 316 316 320 326 326 327 326 330 332 333 333 325 321 320 317 315 312 310 308 307
307 308 311 308 310 308 307 308 309 310 311 313 315 318 322 326 325 327 330 328 325 322 320 318 318 316 315 313 311 309 306 305
308 309 309 309 306 305 306 307 308 310 312 316 319 321 322 322 326 325 324 321 320 319 318 318 317 314 312 310 308 306 304 303
Wind_Speed
7 3 5 8 6 4 7 6 6 7 5 5 4 4 5 6 7 9 8 6 4 3 2 3 3 8 3 4 5 4 5 4
8 9 7 6 7 10 7 8 8 8 4 7 7 7 6 5 7 10 8 4 6 3 3 3 3 2 4 4 3 4 6 6
7 9 8 8 8 9 10 8 9 8 7 6 7 7 5 6 6 8 8 7 6 4 4 3 3 2 3 4 4 4 5 5
9 6 10 7 8 9 10 10 10 8 9 9 8 7 7 6 6 9 12 6 5 5 4 4 4 4 4 4 4 4 6 3
12 13 10 10 8 9 10 12 8 9 9 7 6 6 6 6 7 7 10 8 7 7 5 4 5 4 6 4 5 4 5 3
11 11 11 11 7 10 9 9 8 8 9 8 6 6 7 6 5 4 8 8 8 6 5 5 6 4 4 4 4 4 5 4
11 12 10 11 10 10 9 9 9 12 11 6 7 5 5 5 5 5 8 8 8 6 6 6 6 5 4 4 4 4 3 3
16 14 12 12 10 9 9 7 10 9 4 2 2 3 3 3 5 5 7 5 7 6 6 7 5 4 4 3 5 3 2 3
12 13 14 10 8 6 9 8 10 6 3 3 3 4 3 3 4 5 5 6 7 7 5 5 4 8 9 6 4 4 2 2
13 16 15 11 14 12 9 10 7 7 4 3 3 3 2 2 2 5 7 8 6 5 4 4 5 3 5 6 5 3 2 2
16 16 12 8 9 10 10 12 11 8 7 4 3 3 3 1 3 3 4 6 6 7 5 5 4 2 2 5 5 7 4 2
14 18 21 15 11 7 8 8 9 8 8 5 6 5 4 4 2 2 4 5 8 9 10 11 7 5 4 5 5 4 5 4
16 19 21 22 8 1 2 2 3 6 9 7 5 4 3 2 1 2 4 4 5 7 9 9 12 8 6 5 5 4 3 3
19 19 21 16 9 6 6 8 5 6 7 4 2 3 4 1 0 2 4 2 5 9 9 8 8 8 7 5 6 3 4 3
17 19 17 17 15 13 10 9 5 3 6 6 6 5 5 6 3 3 4 3 3 6 9 8 4 3 5 6 6 7 4 3
16 13 11 13 14 15 14 11 9 9 5 1 4 6 4 4 5 4 4 4 5 6 8 6 7 8 9 9 5 6 7 7
18 17 11 8 11 11 10 11 12 11 8 6 4 2 3 4 6 5 4 3 4 7 7 8 10 10 12 12 10 8 9 7
17 19 13 7 6 6 8 8 8 6 8 7 5 6 5 3 4 5 3 3 2 4 8 7 9 12 14 14 11 12 12 7
1 19 11 10 4 5 6 8 9 10 8 7 7 6 5 2 3 1 2 2 3 5 6 8 10 12 14 13 13 11 15 12
6 13 15 5 2 5 6 6 7 6 6 7 7 6 5 1 1 2 4 5 7 7 8 9 12 14 14 15 14 11 13 10
Wind_Direction
322 185 227 229 220 214 214 188 181 174 176 180 192 187 191 193 191 195 198 209 209 211 218 231 222 238 251 272 281 278 280 284
273 286 203 237 220 220 211 198 188 194 168 185 198 200 196 189 197 203 202 198 203 208 214 224 228 224 242 246 264 272 276 273
229 247 271 218 214 221 214 193 195 196 183 183 187 199 202 197 186 206 207 205 198 183 214 212 223 213 230 250 261 271 273 273
289 251 237 242 231 212 219 211 202 178 191 189 192 188 194 193 199 210 213 201 198 194 199 209 222 206 217 228 240 258 264 267
256 257 253 226 214 227 209 209 198 189 197 201 192 197 186 207 212 204 207 196 199 199 195 195 217 207 219 220 235 248 267 250
272 260 235 243 229 210 218 192 183 195 199 199 192 197 189 195 198 198 212 210 208 201 200 202 212 198 206 219 226 244 249 252
275 261 242 248 216 207 213 195 194 203 208 201 198 193 185 180 190 210 204 206 204 207 218 219 210 211 199 213 236 208 238 242
269 266 257 237 239 212 209 203 205 183 156 165 148 195 213 195 194 192 202 195 191 197 227 230 212 207 216 181 217 195 240 213
286 270 259 245 243 235 207 191 211 160 148 171 190 208 196 208 216 212 189 180 215 219 218 219 220 216 216 196 184 185 225 181
303 315 270 240 231 222 197 200 191 187 170 169 155 158 171 176 185 222 220 220 177 219 212 236 234 249 235 187 166 151 185 144
326 326 297 267 244 216 201 203 195 199 174 114 88 78 81 52 241 251 235 211 191 185 164 199 221 183 219 270 181 170 170 191
336 350 346 321 247 214 218 207 188 191 156 144 171 167 170 223 174 217 280 224 218 212 207 208 194 170 223 253 235 183 138 182
353 359 355 337 312 333 344 336 183 166 168 169 167 173 213 109 83 308 282 259 228 218 207 204 215 202 201 191 237 188 151 164
3 356 0 347 354 47 73 79 82 81 79 47 353 346 40 329 283 284 283 244 238 222 217 209 189 185 183 180 129 166 159 192
1 5 355 345 11 12 30 35 37 78 126 136 145 191 205 228 216 245 290 259 213 236 214 198 190 179 96 94 100 110 123 157
350 344 352 350 356 20 25 28 23 23 40 108 213 208 197 210 212 207 248 235 236 212 213 158 133 121 109 97 71 88 101 82
328 335 335 350 354 2 11 26 32 32 18 11 20 354 255 226 221 218 232 253 244 219 192 165 148 136 125 116 109 94 91 83
323 313 315 321 342 346 16 19 30 12 21 8 1 341 334 219 221 225 262 296 199 186 166 155 137 128 117 111 107 101 96 73
147 293 289 282 288 350 35 25 32 14 0 349 347 340 324 151 189 207 233 102 109 94 113 117 117 118 114 105 103 101 107 94
210 261 292 260 13 11 50 32 27 19 356 356 352 348 334 141 136 101 74 80 81 90 99 111 106 99 96 100 103 103 90 103